Location: Colorado Springs
(38.8340°N, 104.8210°W)
Time: 08:32:06
(UTC-07:00)

Vanguard 3 - Pass Details

Date: 29 October 2017
Orbit: 509 x 3263 km, 33.4° (Epoch: 21 November)

Event Time Altitude Azimuth Distance (km) Brightness Sun altitude
Rises 03:30:10 0° 251° (WSW) 7,228 - -45.4°
Reaches altitude 10° 03:35:11 10° 249° (WSW) 6,160 - -44.5°
Exits shadow 03:52:43 66° 196° (SSW) 2,806 9.5 -41.3°
Maximum altitude 03:54:01 68° 172° (S) 2,708 9.5 -41.0°
Drops below altitude 10° 04:05:59 10° 93° (E) 4,127 11.4 -38.8°
Sets 04:08:39 0° 91° (E) 4,816 12.0 -38.3°
